Погода в Суне

Россия / Кировская область     57°50′02″N   50°03′54″E
темп.,
°C
ветер,
м/с
пор.,
м/с
влажн.,
%
обл.,
%
осадки,
мм/ч
давл.,
гПа
погр.,
м
9 мая, вс
вс900:00+9вюв359334 0.0 101584
03:00+8юв389452 0.0 1014148
06:00+11юв41380100 0.0 1013363
09:00+17ююв7115597 0.0 1013756
12:00+20ю8124585 0.0 10121903
15:00+21ю71149100 0.0 10122296
18:00+18ю3762100 0.0 1013147
21:00+14ююв357783 0.7 101469
10 мая, пн
пн1000:00+13юв358050 0.0 101484
03:00+13юв3683100 0.6 1016127
06:00+14ю2582100 0.3 1018182
09:00+14з1186100 0.6 101918
12:00+18ю3470100 0.0 1021647
15:00+15зсз2382100 2.1 102256
18:00+15ссз368799 0.3 1024292
21:00+10с369599 0.3 1026164
11 мая, вт
вт1100:00+9с479699 0.0 1027191
03:00+7с379724 0.0 1028193
06:00+9ссв45888 0.0 1029240
09:00+14ссв44735 0.0 1029520
12:00+18ссв32628 0.0 1029803
15:00+19с325718 0.0 10291010
18:00+18ссв236654 0.0 1029108
21:00+13ссв227195 0.0 103020
12 мая, ср
ср1200:00+11св22653 0.0 103117
03:00+10св22655 0.0 103115
06:00+13всв24685 0.0 1031144
09:00+18всв34530 0.0 1031573
12:00+21в33420 0.0 1030957
15:00+22в11410 0.0 1029995
18:00+20св22520 0.0 102931
21:00+16всв22540 0.0 102911
13 мая, чт
чт1300:00+14в22600 0.0 102911
03:00+13в11665 0.0 103010
06:00+16в22630 0.0 1029110
09:00+21юв23540 0.0 1029450
12:00+24юв24436 0.0 10281965
15:00+25юз3440100 0.0 10271944
18:00+22ююз235721 0.0 102664
21:00+18ююз226333 0.0 102611